This demonstration page uses our WeatherBlox Daily Observations layout. Learn more.

Left ArrowRight Arrow

Hourly Observations for August 16, 2018

Temp ( °F °C ) Dew Point ( °F °C ) Humidity (%) Winds ( mph kmh ) Pressure ( in mb ) Visibility ( mi km ) Precip ( " mm )
12:16 am 00:16 Mostly Cloudy 66 19 66 19 100 100 S 9 15 30 1016 10 16.0934 N/A
12:37 am 00:37 Mostly Cloudy 66 19 66 19 100 100 S 8 13 30 1016 10 16.0934 N/A
12:57 am 00:57 Cloudy 66 19 66 19 100 100 S 7 11 30 1016 10 16.0934 N/A
1:16 am 01:16 Cloudy 66 19 66 19 100 100 S 6 9 30 1016 10 16.0934 N/A
1:37 am 01:37 Cloudy 66 19 66 19 100 100 S 8 13 30 1016 10 16.0934 N/A
1:56 am 01:56 Cloudy 66 19 66 19 100 100 S 7 11 30 1016 10 16.0934 N/A
2:16 am 02:16 Cloudy 66 19 66 19 100 100 S 8 13 30 1016 10 16.0934 N/A
2:37 am 02:37 Cloudy 66 19 66 19 100 100 S 7 11 30 1016 10 16.0934 N/A
2:56 am 02:56 Cloudy 66 19 66 19 100 100 S 8 13 30 1016 10 16.0934 N/A
3:17 am 03:17 Cloudy 66 19 66 19 100 100 S 9 15 29.97 1015 10 16.0934 N/A
3:36 am 03:36 Cloudy 68 20 68 20 100 100 S 9 15 30 1016 1.25 2.011675 N/A
3:56 am 03:56 Cloudy 66 19 66 19 100 100 S 8 13 30 1016 4 6.43736 N/A
4:17 am 04:17 Cloudy 66 19 66 19 100 100 SSE 8 13 29.97 1015 10 16.0934 N/A
4:36 am 04:36 Cloudy 66 19 66 19 100 100 S 8 13 29.97 1015 10 16.0934 N/A
4:56 am 04:56 Cloudy 68 20 68 20 100 100 S 9 15 29.97 1015 10 16.0934 N/A
5:17 am 05:17 Cloudy 68 20 68 20 100 100 S 12 19 29.97 1015 10 16.0934 N/A
5:36 am 05:36 Mostly Cloudy 68 20 68 20 100 100 S 9 15 29.97 1015 10 16.0934 N/A
5:57 am 05:57 Mostly Cloudy 68 20 68 20 100 100 S 8 13 29.97 1015 10 16.0934 N/A
6:17 am 06:17 Mostly Cloudy 66 19 66 19 100 100 S 9 15 29.97 1015 10 16.0934 N/A
6:36 am 06:36 Mostly Cloudy 66 19 66 19 100 100 S 8 13 29.97 1015 10 16.0934 N/A
6:57 am 06:57 Cloudy 68 20 68 20 100 100 S 8 13 29.97 1015 10 16.0934 N/A
7:16 am 07:16 Cloudy 68 20 68 20 100 100 S 7 11 30 1016 10 16.0934 N/A
7:36 am 07:36 Cloudy 68 20 68 20 100 100 S 7 11 30 1016 10 16.0934 N/A
7:57 am 07:57 Cloudy 68 20 68 20 100 100 S 7 11 30 1016 10 16.0934 N/A
8:16 am 08:16 Cloudy 68 20 68 20 100 100 S 9 15 30 1016 10 16.0934 N/A
8:37 am 08:37 Cloudy 68 20 68 20 100 100 S 8 13 30 1016 10 16.0934 N/A
8:56 am 08:56 Cloudy 70 21 70 21 100 100 S 6 9 29.97 1015 10 16.0934 N/A
9:16 am 09:16 Cloudy 70 21 70 21 100 100 S 7 11 29.97 1015 7 11.26538 N/A
9:37 am 09:37 Cloudy 70 21 70 21 100 100 S 7 11 29.97 1015 7 11.26538 N/A
9:56 am 09:56 Cloudy 70 21 70 21 100 100 S 10 17 29.97 1015 10 16.0934 N/A
10:17 am 10:17 Cloudy 70 21 70 21 100 100 S 7 11 29.97 1015 10 16.0934 N/A
10:36 am 10:36 Cloudy 72 22 72 22 100 100 SSW 9 15 29.97 1015 10 16.0934 N/A
10:56 am 10:56 Cloudy 72 22 72 22 100 100 S 12 19 29.97 1015 10 16.0934 N/A
11:17 am 11:17 Cloudy 72 22 72 22 100 100 S 10 17 29.97 1015 10 16.0934 N/A
11:36 am 11:36 Cloudy 72 22 72 22 100 100 SSW 10 17 29.97 1015 10 16.0934 N/A
11:57 am 11:57 Cloudy 73 23 73 23 100 100 S 13 20 29.97 1015 10 16.0934 N/A
12:16 pm 12:16 Cloudy 73 23 73 23 100 100 S 9 15 29.97 1015 10 16.0934 N/A
12:36 pm 12:36 Cloudy 73 23 73 23 100 100 SSW 8 13 29.97 1015 10 16.0934 N/A
12:57 pm 12:57 Cloudy 75 24 75 24 100 100 SSW 9 15 29.97 1015 10 16.0934 N/A
1:16 pm 13:16 Cloudy 75 24 75 24 100 100 SSW 9 15 29.97 1015 10 16.0934 N/A
1:36 pm 13:36 Cloudy 75 24 75 24 100 100 SW 10 17 29.97 1015 10 16.0934 N/A
1:57 pm 13:57 Cloudy 73 23 73 23 100 100 SSW 12 19 29.97 1015 10 16.0934 N/A
2:16 pm 14:16 Cloudy 77 25 75 24 94 94 SSW 12 19 29.97 1015 10 16.0934 N/A
2:37 pm 14:37 Cloudy 73 23 73 23 100 100 S 7 11 29.97 1015 10 16.0934 N/A
2:56 pm 14:56 Cloudy 73 23 73 23 100 100 S 7 11 29.97 1015 7 11.26538 N/A
3:16 pm 15:16 Cloudy 73 23 73 23 100 100 S 7 11 29.97 1015 10 16.0934 N/A
3:37 pm 15:37 Cloudy 75 24 75 24 100 100 S 8 13 29.97 1015 7 11.26538 N/A
3:56 pm 15:56 Cloudy 75 24 75 24 100 100 SSW 9 15 29.97 1015 7 11.26538 N/A
4:17 pm 16:17 Cloudy 75 24 75 24 100 100 S 8 13 29.97 1015 7 11.26538 N/A
4:36 pm 16:36 Cloudy 75 24 75 24 100 100 SSW 10 17 29.94 1014 7 11.26538 N/A
4:56 pm 16:56 Mostly Cloudy 77 25 77 25 100 100 SSW 10 17 29.94 1014 10 16.0934 N/A
5:17 pm 17:17 Mostly Cloudy 79 26 77 25 94 94 SSW 7 11 29.94 1014 10 16.0934 N/A
5:36 pm 17:36 Mostly Cloudy 79 26 77 25 94 94 SSW 9 15 29.94 1014 10 16.0934 N/A
5:57 pm 17:57 Partly Cloudy 77 25 75 24 94 94 SSW 8 13 29.94 1014 10 16.0934 N/A
6:16 pm 18:16 Partly Cloudy 77 25 77 25 100 100 SSW 7 11 29.94 1014 10 16.0934 N/A
6:36 pm 18:36 Sunny 77 25 77 25 100 100 S 5 7 29.94 1014 10 16.0934 N/A
6:57 pm 18:57 Partly Cloudy 75 24 75 24 100 100 SSW 6 9 29.94 1014 10 16.0934 N/A
7:16 pm 19:16 Mostly Cloudy 75 24 75 24 100 100 Calm 29.94 1014 10 16.0934 N/A
7:37 pm 19:37 Cloudy 75 24 75 24 100 100 SSE 3 6 29.94 1014 10 16.0934 N/A
7:56 pm 19:56 Cloudy 75 24 75 24 100 100 WSW 9 15 29.94 1014 4 6.43736 N/A
8:17 pm 20:17 Cloudy 73 23 73 23 100 100 S 6 9 29.97 1015 3 4.82802 N/A
8:37 pm 20:37 Mostly Cloudy 73 23 73 23 100 100 Calm 29.94 1014 10 16.0934 N/A
8:56 pm 20:56 Mostly Cloudy 73 23 73 23 100 100 SE 6 9 29.94 1014 10 16.0934 N/A
9:17 pm 21:17 Mostly Cloudy 73 23 73 23 100 100 S 6 9 29.97 1015 5 8.0467 N/A
9:36 pm 21:36 Mostly Cloudy 73 23 73 23 100 100 S 7 11 29.97 1015 10 16.0934 N/A
9:57 pm 21:57 Cloudy 73 23 73 23 100 100 S 5 7 29.97 1015 10 16.0934 N/A
10:17 pm 22:17 Cloudy 73 23 73 23 100 100 S 6 9 29.97 1015 10 16.0934 N/A
10:36 pm 22:36 Cloudy 73 23 73 23 100 100 S 6 9 29.97 1015 7 11.26538 N/A
10:57 pm 22:57 Cloudy 73 23 73 23 100 100 S 5 7 29.97 1015 7 11.26538 N/A
11:16 pm 23:16 Partly Cloudy 72 22 72 22 100 100 SSW 5 7 29.97 1015 7 11.26538 N/A
11:37 pm 23:37 Clear 72 22 72 22 100 100 SW 6 9 29.97 1015 7 11.26538 N/A
11:56 pm 23:56 Clear 72 22 72 22 100 100 SW 8 13 29.97 1015 7 11.26538 N/A

Powered by AerisWeather